Powrót do katalogu

STARLINK-32594

AktywnyŁącznośćVLEO
NORAD 62302·PAYLOAD·🇺🇸 United States

Wystrzelony Dec 13, 2024 z Vandenberg Space Force Base

Loading…

Następne Przeloty (najbliższe 24 godziny)

TLE

ŚwieżeSource: CelesTrak SupGP

Epoka: Sep 14, 2026, 22:30 UTC

1 62302C 24239B   26257.93798611  .00007043  00000+0  20790-3 0  2570
2 62302  53.1587  29.3973 0001608  72.7246 295.5741 15.34413247    18

Śledź STARLINK-32594 w czasie rzeczywistym z AllMySat

Download on the App Store